Precipitable_Water
0.88 0.91 0.94 1.03 1.25 1.32 1.38 1.45 1.45 1.43 1.42 1.34 1.24 1.17 1.13 1.23 1.27 1.36 1.42 1.45 1.42 1.38 1.35 1.33 1.35 1.38 1.29 1.25 1.25 1.20 1.15 1.09 1.14 1.01 0.98 0.99 1.02 1.03 0.98 0.99 1.07 0.99 0.95
0.79 0.87 0.89 0.94 1.05 1.17 1.29 1.36 1.40 1.44 1.47 1.42 1.39 1.35 1.31 1.30 1.36 1.43 1.49 1.53 1.55 1.55 1.48 1.45 1.38 1.34 1.27 1.25 1.23 1.21 1.12 1.08 1.09 0.96 0.88 0.76 0.80 0.89 0.92 0.92 0.93 0.94 0.97
0.74 0.80 0.87 0.87 0.92 1.03 1.19 1.31 1.37 1.42 1.46 1.48 1.46 1.45 1.46 1.44 1.41 1.41 1.44 1.45 1.50 1.49 1.48 1.48 1.42 1.38 1.34 1.22 1.21 1.17 1.09 0.92 0.97 0.98 0.86 0.73 0.66 0.78 0.88 0.91 0.94 0.95 0.91
0.72 0.76 0.79 0.83 0.86 0.91 1.07 1.30 1.36 1.41 1.46 1.50 1.48 1.41 1.30 1.23 1.34 1.41 1.44 1.49 1.45 1.39 1.37 1.33 1.31 1.29 1.21 1.13 1.07 1.04 0.94 0.88 0.75 0.86 0.92 0.96 0.92 0.72 0.66 0.79 0.84 0.86 0.80
0.71 0.74 0.78 0.81 0.85 0.90 0.97 1.14 1.33 1.37 1.43 1.50 1.51 1.45 1.37 1.41 1.39 1.37 1.33 1.33 1.36 1.32 1.22 1.14 1.00 0.94 0.93 0.90 0.86 0.85 0.83 0.87 0.82 0.76 0.75 0.78 0.78 0.82 0.69 0.60 0.66 0.83 0.89
0.71 0.75 0.79 0.83 0.86 0.91 0.94 1.01 1.13 1.27 1.34 1.38 1.41 1.41 1.34 1.27 1.25 1.23 1.20 1.18 1.17 1.11 0.99 0.94 0.91 0.88 0.88 0.88 0.89 0.89 0.86 0.84 0.83 0.81 0.80 0.73 0.68 0.65 0.68 0.64 0.71 0.73 0.88
0.66 0.68 0.71 0.77 0.83 0.87 0.90 0.93 0.96 1.01 1.17 1.26 1.28 1.29 1.29 1.22 1.16 1.13 1.09 1.08 1.01 0.92 0.93 0.96 0.92 0.90 0.90 0.90 0.89 0.88 0.84 0.81 0.78 0.77 0.75 0.80 0.79 0.80 0.78 0.79 0.77 0.75 0.86
0.55 0.61 0.70 0.74 0.79 0.86 0.89 0.88 0.89 0.91 0.95 1.01 1.07 1.09 1.07 1.07 1.07 1.04 1.03 1.03 1.00 0.99 0.97 0.97 0.96 0.93 0.91 0.88 0.88 0.87 0.87 0.86 0.84 0.82 0.85 0.83 0.87 0.90 0.89 0.81 0.78 0.73 0.83
0.46 0.50 0.60 0.69 0.75 0.81 0.83 0.85 0.85 0.86 0.92 0.95 0.96 0.95 0.96 0.97 0.99 0.99 0.98 0.94 0.97 0.95 0.95 0.96 0.94 0.91 0.90 0.88 0.88 0.84 0.83 0.85 0.86 0.86 0.87 0.86 0.85 0.90 0.92 0.92 0.96 0.87 0.72
0.41 0.43 0.46 0.57 0.69 0.73 0.79 0.81 0.86 0.87 0.89 0.93 0.96 0.95 0.94 0.92 0.91 0.91 0.88 0.89 0.91 0.92 0.91 0.93 0.91 0.89 0.86 0.86 0.84 0.82 0.84 0.82 0.84 0.86 0.86 0.86 0.86 0.89 0.91 0.88 0.90 0.85 0.78
0.42 0.43 0.45 0.47 0.51 0.63 0.69 0.74 0.83 0.88 0.88 0.92 0.94 0.96 0.94 0.92 0.90 0.89 0.92 0.93 0.95 0.96 0.93 0.91 0.85 0.84 0.80 0.78 0.77 0.79 0.80 0.79 0.79 0.81 0.82 0.81 0.84 0.81 0.82 0.84 0.83 0.81 0.75
0.47 0.48 0.48 0.49 0.50 0.53 0.59 0.61 0.68 0.82 0.88 0.89 0.89 0.89 0.87 0.86 0.86 0.90 0.93 0.92 0.91 0.91 0.90 0.90 0.88 0.79 0.76 0.74 0.74 0.76 0.77 0.76 0.76 0.77 0.77 0.76 0.79 0.76 0.77 0.76 0.75 0.71 0.66
0.47 0.48 0.49 0.48 0.50 0.51 0.52 0.55 0.58 0.60 0.65 0.71 0.75 0.79 0.83 0.82 0.82 0.84 0.85 0.86 0.83 0.83 0.83 0.79 0.76 0.77 0.74 0.74 0.75 0.77 0.77 0.76 0.75 0.76 0.74 0.73 0.74 0.72 0.73 0.73 0.67 0.64 0.62
0.48 0.47 0.48 0.48 0.50 0.52 0.53 0.53 0.54 0.58 0.59 0.61 0.63 0.65 0.68 0.72 0.73 0.74 0.74 0.72 0.76 0.74 0.71 0.72 0.70 0.72 0.73 0.71 0.72 0.72 0.74 0.73 0.74 0.75 0.75 0.74 0.72 0.70 0.70 0.64 0.62 0.61 0.54
0.51 0.50 0.48 0.48 0.52 0.54 0.56 0.58 0.57 0.59 0.61 0.59 0.59 0.60 0.63 0.65 0.67 0.67 0.67 0.67 0.67 0.66 0.66 0.66 0.67 0.69 0.69 0.70 0.71 0.72 0.72 0.73 0.73 0.73 0.74 0.74 0.73 0.71 0.65 0.61 0.59 0.49 0.43
0.48 0.49 0.49 0.49 0.50 0.52 0.56 0.59 0.61 0.60 0.62 0.62 0.62 0.64 0.64 0.64 0.64 0.65 0.67 0.68 0.66 0.65 0.65 0.64 0.63 0.64 0.65 0.68 0.70 0.71 0.71 0.73 0.72 0.71 0.72 0.72 0.66 0.63 0.64 0.62 0.48 0.42 0.38
0.48 0.49 0.49 0.50 0.51 0.52 0.54 0.56 0.65 0.66 0.63 0.63 0.63 0.63 0.64 0.63 0.65 0.68 0.68 0.66 0.64 0.65 0.65 0.65 0.64 0.62 0.64 0.67 0.69 0.71 0.71 0.71 0.69 0.68 0.64 0.60 0.63 0.63 0.53 0.38 0.33 0.29 0.29
0.45 0.48 0.52 0.52 0.54 0.56 0.57 0.57 0.69 0.69 0.66 0.65 0.65 0.66 0.65 0.65 0.68 0.67 0.66 0.65 0.65 0.65 0.65 0.64 0.64 0.64 0.65 0.67 0.68 0.69 0.69 0.67 0.65 0.64 0.64 0.60 0.47 0.34 0.27 0.24 0.25 0.27 0.30
0.43 0.46 0.55 0.57 0.56 0.55 0.57 0.59 0.61 0.70 0.69 0.68 0.68 0.69 0.69 0.67 0.68 0.67 0.66 0.66 0.65 0.65 0.64 0.65 0.64 0.63 0.65 0.66 0.65 0.64 0.62 0.58 0.48 0.41 0.35 0.30 0.27 0.27 0.27 0.27 0.26 0.28 0.31
0.45 0.44 0.52 0.59 0.57 0.56 0.58 0.58 0.58 0.63 0.69 0.71 0.72 0.73 0.72 0.69 0.69 0.69 0.67 0.68 0.67 0.65 0.65 0.64 0.65 0.65 0.64 0.63 0.55 0.46 0.35 0.30 0.28 0.28 0.29 0.31 0.30 0.33 0.34 0.31 0.31 0.30 0.31
0.40 0.42 0.50 0.57 0.59 0.60 0.59 0.57 0.59 0.59 0.69 0.75 0.75 0.74 0.73 0.71 0.71 0.69 0.69 0.66 0.65 0.64 0.64 0.63 0.64 0.64 0.64 0.55 0.44 0.37 0.31 0.29 0.26 0.25 0.25 0.30 0.37 0.36 0.35 0.35 0.34 0.32 0.34
0.41 0.40 0.49 0.57 0.62 0.64 0.61 0.60 0.59 0.66 0.70 0.71 0.71 0.72 0.71 0.72 0.71 0.68 0.66 0.64 0.63 0.61 0.61 0.61 0.61 0.64 0.60 0.49 0.41 0.35 0.31 0.30 0.29 0.31 0.32 0.32 0.35 0.36 0.36 0.37 0.36 0.36 0.36
0.45 0.44 0.51 0.58 0.62 0.66 0.64 0.59 0.62 0.64 0.67 0.68 0.67 0.67 0.71 0.71 0.69 0.66 0.64 0.63 0.64 0.63 0.62 0.64 0.64 0.63 0.58 0.44 0.40 0.37 0.33 0.32 0.29 0.31 0.32 0.32 0.35 0.36 0.36 0.36 0.38 0.40 0.38
0.47 0.46 0.50 0.56 0.60 0.64 0.68 0.66 0.66 0.67 0.65 0.65 0.67 0.70 0.69 0.67 0.67 0.67 0.67 0.67 0.65 0.70 0.65 0.62 0.63 0.63 0.49 0.37 0.34 0.35 0.36 0.37 0.36 0.34 0.34 0.35 0.36 0.36 0.35 0.34 0.36 0.38 0.39
0.50 0.50 0.47 0.54 0.61 0.65 0.67 0.71 0.73 0.72 0.69 0.68 0.67 0.67 0.66 0.66 0.66 0.68 0.66 0.66 0.71 0.70 0.67 0.65 0.62 0.51 0.34 0.31 0.32 0.30 0.32 0.32 0.35 0.35 0.34 0.33 0.34 0.35 0.35 0.35 0.37 0.40 0.38
0.49 0.49 0.49 0.53 0.57 0.64 0.68 0.69 0.73 0.74 0.73 0.71 0.71 0.69 0.67 0.67 0.68 0.68 0.69 0.73 0.72 0.70 0.71 0.71 0.64 0.50 0.41 0.37 0.35 0.35 0.35 0.36 0.37 0.37 0.35 0.34 0.35 0.38 0.39 0.42 0.40 0.38 0.37
Wind_Speed
29 31 29 28 30 31 29 29 29 28 27 26 25 25 25 25 24 23 23 22 21 21 22 22 22 21 22 22 23 23 24 25 25 26 27 28 28 29 28 27 25 22 21
33 33 31 31 30 30 32 32 30 30 28 28 27 25 25 24 24 24 23 22 21 21 23 22 24 24 24 25 25 26 27 27 28 28 28 28 27 27 25 24 21 22 22
33 34 33 33 32 31 30 32 32 32 30 29 28 28 27 26 26 26 26 25 25 25 24 25 26 27 27 28 29 29 30 30 30 30 30 28 26 25 24 22 21 22 23
27 36 37 33 33 33 31 32 32 32 34 33 32 31 30 29 29 28 27 27 26 26 26 27 27 28 29 30 30 31 31 32 31 31 30 30 29 27 26 24 24 24 23
24 29 36 35 33 33 33 31 32 32 32 32 33 31 31 31 30 29 29 28 28 28 28 28 28 29 30 31 32 33 33 33 32 32 31 30 30 29 28 27 25 25 24
22 23 28 30 31 31 33 33 32 33 33 32 31 31 31 30 29 29 30 30 30 30 29 30 31 32 33 34 34 34 33 33 33 32 32 31 29 27 27 26 25 25 25
19 21 23 26 29 29 30 33 34 35 35 36 34 33 32 31 30 29 29 30 30 31 32 31 32 33 34 34 34 34 33 33 32 32 31 31 31 29 28 26 26 25 25
14 16 23 23 25 26 27 28 30 34 35 35 34 33 32 32 32 32 33 35 34 33 33 33 34 34 34 34 33 33 32 32 32 31 30 30 29 28 27 27 26 25 25
13 15 17 22 24 25 26 27 28 29 31 33 33 33 33 33 33 33 33 32 33 33 34 34 34 34 34 34 34 33 33 32 31 30 29 28 27 26 26 26 26 24 25
9 12 15 17 21 24 26 26 27 29 28 29 30 31 32 32 33 34 33 34 34 35 34 34 34 35 35 34 33 33 32 31 31 30 29 27 27 26 25 26 26 26 25
7 8 10 13 17 21 24 27 26 28 29 29 30 30 30 31 33 34 35 36 37 37 37 37 37 36 35 34 33 32 31 30 30 29 29 29 28 27 27 26 26 26 25
11 12 12 13 15 16 20 24 26 28 30 31 31 31 31 30 30 31 32 32 33 35 36 37 39 36 34 34 33 33 32 32 31 30 29 28 28 27 27 26 25 24 23
14 14 15 15 16 17 19 21 23 26 29 31 32 32 32 31 31 30 30 30 31 31 31 31 32 33 33 33 33 33 32 31 31 30 29 28 27 26 26 25 23 22 21
15 17 19 20 19 19 19 20 21 23 26 28 29 30 30 30 30 30 30 30 30 31 31 31 31 32 31 32 32 31 30 29 29 28 27 27 26 25 25 23 22 21 19
18 19 20 22 24 24 23 22 22 22 22 23 24 25 26 27 27 27 28 28 29 30 30 30 30 31 31 31 31 30 29 28 27 26 26 26 25 24 23 21 20 19 18
19 20 21 22 24 24 27 26 25 25 24 24 24 24 25 25 25 26 26 27 28 28 29 29 29 29 29 29 29 28 28 28 27 26 25 23 22 21 20 19 18 17 17
21 23 23 24 25 25 26 28 26 26 26 26 25 25 25 26 26 26 26 27 27 27 27 27 27 27 27 26 26 26 26 25 25 23 22 21 20 20 19 17 16 16 16
23 24 25 25 25 26 26 27 28 26 26 26 26 25 25 25 25 25 25 26 26 26 26 26 26 26 25 24 23 22 22 22 21 21 20 19 17 17 16 16 16 16 16
25 25 26 26 26 26 26 25 26 26 25 25 25 25 25 24 24 24 24 24 25 25 25 25 24 23 22 21 20 19 18 18 17 17 17 18 16 15 15 16 15 16 16
27 26 26 25 25 24 24 24 25 26 26 26 26 25 25 24 24 23 23 23 23 23 22 22 21 20 20 19 18 17 16 16 16 16 16 16 16 16 15 15 15 15 15
27 27 26 24 24 23 22 23 24 26 26 26 26 26 25 24 23 23 23 22 22 21 21 20 20 19 19 18 17 17 16 15 15 15 15 16 16 16 15 15 15 14 14
27 26 25 24 24 22 21 21 22 24 25 26 26 25 25 24 23 23 22 21 20 20 20 19 18 18 18 18 18 17 16 16 15 14 14 15 15 15 16 15 15 15 15
25 24 24 24 23 22 21 21 22 23 23 23 24 25 25 25 24 23 22 21 21 20 20 20 19 17 17 17 17 17 16 16 15 14 15 15 16 16 16 16 17 17 17
25 24 24 23 23 22 21 20 20 21 22 23 24 25 25 25 25 24 23 23 22 21 20 19 18 17 16 16 16 16 16 16 16 16 16 16 17 17 17 18 18 18 18
24 24 23 23 23 22 21 20 20 20 21 22 23 24 25 26 25 25 24 23 22 20 19 19 18 16 16 16 17 17 17 17 17 17 17 18 18 19 19 19 19 20 20
24 24 24 24 23 23 22 21 21 21 21 22 23 24 25 25 25 25 25 24 21 20 20 18 19 19 19 19 19 19 20 20 19 19 19 19 19 20 20 20 20 21 21
Wind_Direction
228 229 229 228 229 230 231 231 231 232 235 238 241 243 244 244 246 244 244 245 249 253 257 261 266 271 274 278 281 284 286 289 291 294 294 295 296 298 299 297 296 296 299
231 229 229 231 231 233 234 234 234 235 238 239 241 242 243 243 243 242 242 245 249 255 260 264 266 270 275 279 282 284 286 288 289 290 293 295 297 299 300 296 293 294 297
232 230 230 231 233 234 236 235 237 237 239 240 241 243 243 244 243 244 245 249 252 258 264 265 268 273 277 279 281 283 285 287 288 288 289 293 293 297 297 295 292 293 296
240 231 231 233 235 236 238 238 239 240 241 241 243 243 244 245 245 245 246 250 254 259 264 268 272 274 276 279 282 284 285 287 288 288 286 285 288 292 293 292 291 292 294
239 232 230 235 238 237 238 239 240 241 242 244 243 245 246 247 246 247 248 253 257 261 265 269 272 275 278 279 282 284 284 286 286 285 285 285 285 285 285 288 288 290 292
235 232 231 232 234 237 240 240 239 240 242 244 245 246 246 246 249 251 254 256 259 262 265 270 273 277 279 280 281 283 284 284 284 284 283 282 283 284 283 283 285 287 291
239 236 231 232 233 236 241 243 244 244 244 245 246 247 247 247 249 254 256 258 259 264 268 271 275 278 280 280 281 281 282 282 282 282 282 280 279 280 280 280 283 284 285
240 238 237 235 233 237 239 242 245 245 245 244 244 246 247 250 253 256 261 261 262 263 268 272 277 277 279 280 280 280 281 281 280 280 280 280 279 278 277 279 279 283 284
244 247 247 239 240 241 242 243 246 246 244 242 243 245 249 253 255 260 263 260 261 266 269 273 276 278 278 279 279 279 279 279 279 279 279 279 279 277 277 278 278 278 283
254 256 251 247 245 246 245 247 249 244 243 242 243 246 251 255 257 259 259 260 264 267 270 273 275 277 278 278 278 278 277 277 276 276 276 277 277 276 276 278 278 280 281
253 265 263 258 254 250 248 249 250 244 242 244 247 251 254 256 258 260 261 263 265 267 270 272 274 276 276 276 277 276 276 276 275 275 274 273 274 274 275 277 278 279 280
256 262 264 265 265 261 256 253 251 247 245 246 249 253 255 258 262 263 261 267 269 269 269 272 270 272 273 274 275 274 273 273 273 273 273 273 272 272 275 276 276 277 278
270 270 272 271 268 265 263 259 256 251 249 248 249 250 253 257 260 262 264 267 269 272 273 273 271 270 272 273 274 273 272 272 272 271 271 271 270 271 273 273 273 274 275
280 279 275 273 269 267 266 262 260 256 253 250 250 251 253 256 259 262 266 268 270 272 274 274 273 273 274 274 272 271 270 271 271 270 269 269 269 270 270 269 270 270 271
282 285 283 278 271 268 265 263 261 257 254 250 249 251 252 255 258 262 264 268 270 273 274 273 274 275 274 274 272 270 268 268 269 270 268 268 268 267 265 264 265 265 266
285 286 285 283 276 272 264 262 260 256 253 252 252 252 254 257 259 263 267 271 273 274 275 275 275 276 277 276 274 270 268 268 267 268 268 267 264 262 261 260 261 261 264
288 287 286 285 282 274 270 259 259 255 251 252 253 254 256 259 262 266 269 272 273 273 274 275 276 276 276 275 271 268 266 266 263 261 260 259 259 258 257 254 256 262 266
290 290 288 287 285 279 272 263 254 252 249 249 252 254 256 258 262 265 270 272 272 273 273 274 275 275 274 272 269 265 263 263 261 256 254 254 254 253 249 249 257 264 266
289 290 290 288 288 281 272 263 251 248 247 248 250 252 254 257 261 266 271 272 272 272 274 275 273 272 270 268 265 262 260 257 254 251 249 248 249 246 247 256 258 263 265
288 288 290 288 289 283 276 261 250 246 248 248 250 252 253 256 261 267 269 272 273 273 272 273 271 269 268 262 257 257 255 253 250 248 246 247 243 245 254 256 260 262 264
290 286 286 285 289 286 277 262 253 249 252 250 251 251 252 255 260 267 268 271 271 271 270 269 268 267 263 257 252 251 249 249 247 245 247 248 248 249 254 258 259 262 266
292 286 284 284 287 284 277 266 257 254 252 251 250 247 249 254 260 265 267 269 267 268 266 265 265 264 258 252 250 247 243 247 247 247 248 247 249 253 255 258 261 263 267
291 288 284 284 285 281 277 267 262 256 252 249 247 248 250 255 260 261 263 264 265 267 262 264 261 261 253 249 245 242 242 243 246 249 250 251 253 256 258 262 263 264 269
291 288 285 284 282 280 275 269 261 255 251 250 249 251 254 257 257 258 260 262 263 263 257 255 256 254 248 245 242 242 244 247 250 253 255 258 260 261 263 265 266 268 271
290 289 286 284 280 279 273 269 263 256 254 253 253 254 256 256 255 256 257 259 260 253 252 252 250 246 245 246 245 246 248 251 253 255 258 261 263 265 267 267 269 271 272
291 288 286 284 281 278 272 267 262 257 258 257 257 257 257 255 254 257 256 253 252 251 250 251 249 248 249 249 249 250 253 253 253 256 260 262 264 267 268 268 269 271 273